VA7WMK Weather Reports


time (UTC)temp
C
wind
direction
speed
KPH
gust
KPH
rain 1hr
cm
rain 24hr
cm
rain mn
cm
humidity
%
barometer
mb
20260506051005 13 68 3.2 4.8 0.00 0.00 0.00 67 1012.6
20260506050513 13 68 3.2 8.0 0.00 0.00 0.00 67 1012.6
20260506045004 13 70 3.2 8.0 0.00 0.00 0.00 67 1012.5
20260506043507 13 66 3.2 9.7 0.00 0.00 0.00 67 1012.4
20260506043015 13 65 3.2 9.7 0.00 0.00 0.00 67 1012.4
20260506042010 13 69 3.2 9.7 0.00 0.00 0.00 67 1012.3
20260506041015 13 70 1.6 9.7 0.00 0.00 0.00 67 1012.2
20260506035506 14 58 3.2 9.7 0.00 0.00 0.00 65 1012.0
20260506034514 15 70 3.2 9.7 0.00 0.00 0.00 65 1011.9
20260506034010 15 75 3.2 9.7 0.00 0.00 0.00 65 1011.9
20260506032014 15 63 1.6 4.8 0.00 0.00 0.00 63 1012.0
20260506031508 15 56 3.2 8.0 0.00 0.00 0.00 62 1012.0
20260506031013 15 61 3.2 9.7 0.00 0.00 0.00 62 1011.9
20260506030508 15 69 3.2 9.7 0.00 0.00 0.00 62 1011.9
20260506025523 16 72 3.2 9.7 0.00 0.00 0.00 61 1011.8
20260506024514 16 69 3.2 12.9 0.00 0.00 0.00 61 1011.8
20260506024016 16 73 3.2 12.9 0.00 0.00 0.00 61 1011.8
20260506023510 16 77 3.2 12.9 0.00 0.00 0.00 61 1011.8
20260506022505 16 77 3.2 11.3 0.00 0.00 0.00 61 1011.8
20260506021006 17 75 3.2 9.7 0.00 0.00 0.00 60 1011.7
20260506020514 17 71 3.2 8.0 0.00 0.00 0.00 60 1011.7
20260506020010 17 77 3.2 8.0 0.00 0.00 0.00 60 1011.7
20260506015004 17 75 3.2 8.0 0.00 0.00 0.00 59 1011.7
20260506014513 17 74 3.2 8.0 0.00 0.00 0.00 59 1011.7
20260506013509 17 70 3.2 8.0 0.00 0.00 0.00 58 1011.8
20260506013005 17 68 3.2 11.3 0.00 0.00 0.00 58 1011.9
20260506012513 18 69 3.2 11.3 0.00 0.00 0.00 58 1011.9
20260506011510 18 72 3.2 11.3 0.00 0.00 0.00 57 1011.9
20260506010014 18 76 3.2 9.7 0.00 0.00 0.00 56 1012.0
20260506004506 18 65 3.2 4.8 0.00 0.00 0.00 57 1012.1
20260506004014 18 65 3.2 4.8 0.00 0.00 0.00 56 1012.1
20260506003511 18 68 3.2 9.7 0.00 0.00 0.00 56 1012.2
20260506002503 18 72 3.2 9.7 0.00 0.00 0.00 55 1012.3
20260506001006 18 73 1.6 9.7 0.00 0.00 0.00 55 1012.4
20260506000515 19 69 1.6 9.7 0.00 0.00 0.00 55 1012.5
20260505233014 17 314 0.0 4.8 0.00 0.00 0.00 60 1012.9
20260505231505 16 328 1.6 4.8 0.00 0.00 0.00 61 1013.1
20260505230508 16 307 1.6 4.8 0.00 0.00 0.00 61 1013.1
20260505224004 16 326 1.6 3.2 0.00 0.00 0.00 61 1013.2
20260505223512 16 315 1.6 3.2 0.00 0.00 0.00 61 1013.2
20260505222014 15 5 1.6 8.0 0.00 0.00 0.00 61 1010.7
20260505221505 15 63 1.6 8.0 0.00 0.00 0.00 60 1009.0